x

Yucatan Basin - 120 Nm Ese Of Cozumel, Mx (42056) Wave Buoy

10:50am - Wed 31st Aug 2016 All times are CDT. -5 hours from GMT.

  • Sig Wave height 4.9ft
  • Swell Direction
  • Peak Period 6s
  • Average Period 5s
  • Wind
    20mph, 22mph gusts
  • Sea Temp 86°f
  • Air Temp 86°f
  • Sea Pressure 1011.5mb
  •  Yucatan Basin - 120 Nm Ese Of Cozumel, Mx
  •  Yucatan Basin - 120 Nm Ese Of Cozumel, Mx

More Historic Weather Station data

Upgrade to MSW Pro to gain access to the past 30 days of data for over 8000 Wavebouys and Weather Stations around the globe.

Join Pro

Comparision Forecast

View Surf forecast
   
Wed 08/31 10:50am 5ft 6s 5s 20 22 mph 1011.5mb 86f 86f
10:40am  -   -   -  20 22 mph 1011.5mb 86f 86f
10:30am  -   -   -  20 25 mph 1011.5mb 86f 86f
10:20am  -   -   -  20 22 mph 1011.5mb 86f 86f
10:10am  -   -   -  20 25 mph 1011.4mb 86f 86f
10:00am  -   -   -  20 27 mph 1011.3mb 86f 86f
9:50am 5ft 6s 5s 20 25 mph 1011mb 86f 86f
9:40am 5ft  -  5s 20 25 mph 1011mb 86f 86f
9:30am  -   -   -  22 27 mph 1010.6mb 86f 86f
9:20am  -   -   -  20 27 mph 1010.5mb 86f 86f
9:10am  -   -   -  20 25 mph 1010.4mb 86f 86f
9:00am  -   -   -  22 25 mph 1010.1mb 86f 86f
8:50am 4.5ft 6s 5s 22 27 mph 1010mb 86f 86f
8:40am  -   -   -  22 27 mph 1009.9mb 86f 85f
8:30am  -   -   -  22 27 mph 1010mb 86f 86f
8:20am  -   -   -  22 27 mph 1009.9mb 86f 86f
8:10am  -   -   -  22 29 mph 1009.6mb 86f 86f
8:00am  -   -   -  22 27 mph 1009.6mb 86f 85f
7:50am 5ft 5s 5s 22 27 mph 1009.8mb 86f 85f
7:40am  -   -   -  22 27 mph 1009.6mb 86f 85f
7:30am  -   -   -  22 25 mph 1009.6mb 86f 85f
7:20am  -   -   -  22 29 mph 1009.8mb 86f 85f
7:10am  -   -   -  22 29 mph 1009.6mb 86f 85f
7:00am  -   -   -  25 29 mph 1009.5mb 86f 85f
6:50am 5ft 5s 5s 22 27 mph 1009.6mb 86f 85f
6:40am  -   -   -  22 29 mph 1009.6mb 86f 85f
6:30am  -   -   -  22 27 mph 1009.6mb 86f 85f
6:20am  -   -   -  22 27 mph 1009.8mb 86f 85f
6:10am  -   -   -  25 29 mph 1009.9mb 86f 85f
6:00am  -   -   -  22 29 mph 1009.9mb 86f 85f
5:50am 4.5ft 6s 4s 22 27 mph 1009.8mb 86f 85f
5:40am  -   -   -  20 27 mph 1009.9mb 86f 85f
5:30am  -   -   -  22 27 mph 1009.8mb 86f 85f
5:20am  -   -   -  22 27 mph 1009.5mb 86f 85f
5:10am  -   -   -  22 27 mph 1009.5mb 86f 85f
5:00am  -   -   -  20 22 mph 1009.5mb 86f 85f
4:50am 4.5ft 6s 5s 20 25 mph 1009.5mb - 84f
4:40am  -   -   -  22 27 mph 1009.4mb 86f 83f
4:30am  -   -   -  22 31 mph 1009.5mb 86f 85f
4:20am  -   -   -  20 25 mph 1009.5mb 86f 85f
4:10am  -   -   -  20 25 mph 1009.6mb 86f 85f
4:00am  -   -   -  20 22 mph 1009.6mb 86f 85f
3:50am 4.5ft 7s 5s 18 22 mph 1009.9mb 86f 85f
3:40am  -   -   -  18 22 mph 1009.9mb 86f 85f
3:30am  -   -   -  18 22 mph 1010mb 86f 85f
3:20am  -   -   -  20 25 mph 1010mb 86f 85f
3:10am  -   -   -  20 25 mph 1010mb 86f 85f
3:00am  -   -   -  20 25 mph 1009.9mb 86f 85f
2:50am 4.5ft 6s 4s 20 25 mph 1009.9mb 86f 85f
2:40am  -   -   -  20 27 mph 1010mb 86f 85f
2:30am  -   -   -  20 25 mph 1010mb 86f 85f
2:20am  -   -   -  20 25 mph 1010.3mb 86f 85f
2:10am  -   -   -  20 25 mph 1010.5mb 86f 85f
2:00am  -   -   -  20 25 mph 1010.4mb 86f 85f
1:50am 4ft 7s 4s 20 25 mph 1010.5mb 86f 85f
1:40am  -   -   -  20 25 mph 1010.5mb 86f 85f
1:30am  -   -   -  20 22 mph 1010.5mb 86f 85f
1:20am  -   -   -  20 25 mph 1010.5mb 86f 85f
1:10am  -   -   -  20 22 mph 1010.5mb 86f 85f
1:00am  -   -   -  20 25 mph 1010.8mb 86f 85f
12:50am 4.5ft 7s 5s 20 22 mph 1010.8mb 86f 85f
12:40am  -   -   -  18 22 mph 1010.8mb 86f 85f
12:30am  -   -   -  18 22 mph 1010.8mb 86f 85f
12:20am  -   -   -  20 25 mph 1010.8mb 86f 85f
12:10am  -   -   -  20 25 mph 1010.6mb 86f 85f
12:00am  -   -   -  20 25 mph 1010.5mb 86f 85f
Tue 08/30 11:50pm 4ft 6s 5s 20 25 mph 1010.8mb 86f 85f
11:40pm  -   -   -  20 25 mph 1010.9mb 86f 85f
11:30pm  -   -   -  18 22 mph 1010.9mb 86f 85f
11:20pm  -   -   -  20 25 mph 1010.8mb 86f 85f
11:10pm  -   -   -  20 22 mph 1010.9mb 86f 85f
11:00pm  -   -   -  20 25 mph 1010.8mb 86f 85f
10:50pm 3.5ft 5s 4s 20 25 mph 1010.8mb 86f 85f
10:40pm  -   -   -  18 22 mph 1010.6mb 86f 85f
10:30pm  -   -   -  20 25 mph 1010.6mb 86f 85f
10:20pm  -   -   -  20 22 mph 1010.8mb 86f 85f
10:10pm  -   -   -  18 22 mph 1010.6mb 86f 85f
10:00pm  -   -   -  18 20 mph 1010.6mb 86f 85f
9:50pm 3.5ft 7s 5s 18 20 mph 1010.5mb 86f 85f
9:40pm  -   -   -  18 22 mph 1010.5mb 86f 85f
9:30pm  -   -   -  18 22 mph 1010.5mb 86f 85f
9:20pm  -   -   -  18 22 mph 1010.5mb 86f 86f
9:10pm  -   -   -  18 22 mph 1010.5mb 87f 85f
9:00pm  -   -   -  18 22 mph 1010.5mb 87f 85f
8:50pm 4ft 6s 5s 16 20 mph 1010.4mb 87f 85f
8:40pm  -   -   -  16 20 mph 1010.1mb 87f 85f
8:30pm  -   -   -  16 20 mph 1010.1mb 87f 85f
8:20pm  -   -   -  18 22 mph 1010.1mb - 85f
8:10pm  -   -   -  18 22 mph 1010mb 87f 85f
8:00pm  -   -   -  18 22 mph 1009.8mb 87f 85f
7:50pm 4ft 6s 5s 18 22 mph 1009.8mb 87f 85f
7:40pm  -   -   -  18 20 mph 1009.8mb 86f 85f
7:30pm  -   -   -  18 22 mph 1009.6mb 86f 85f
7:20pm  -   -   -  18 22 mph 1009.5mb 86f 85f
7:10pm  -   -   -  18 22 mph 1009.4mb 86f 85f
7:00pm  -   -   -  18 22 mph 1009.1mb 86f 85f
6:50pm 4ft 7s 5s 18 20 mph 1009mb 86f 85f
6:40pm  -   -   -  16 20 mph 1008.9mb 86f 85f
6:30pm  -   -   -  16 20 mph 1008.8mb 86f 85f
6:20pm  -   -   -  16 18 mph 1008.9mb 86f 85f
6:10pm  -   -   -  16 18 mph 1008.8mb 86f 85f
6:00pm  -   -   -  16 18 mph 1009.4mb - 85f
5:50pm 4ft 7s 5s 16 20 mph 1008.5mb 86f 85f
5:40pm  -   -   -  16 20 mph 1008.5mb 86f 85f
5:30pm  -   -   -  16 20 mph 1008.5mb 87f 85f
5:20pm  -   -   -  16 20 mph 1008.6mb 87f 85f
5:10pm  -   -   -  16 20 mph 1008.8mb 87f 85f
5:00pm  -   -   -  16 20 mph 1008.9mb 86f 85f
4:50pm 4ft  -  5s 16 18 mph 1009.8mb - 85f
4:40pm  -   -   -  16 18 mph 1009mb 86f 86f
4:30pm  -   -   -  16 18 mph 1009.1mb 87f 86f
4:20pm  -   -   -  16 20 mph 1009.3mb 86f 85f
4:10pm  -   -   -  16 18 mph 1009.4mb 86f 86f
4:00pm  -   -   -  16 18 mph 1009.5mb 86f 86f
3:50pm 4ft 6s 5s 16 18 mph 1009.5mb 86f 86f
3:40pm  -   -   -  16 18 mph 1009.5mb 86f 86f
3:30pm  -   -   -  16 20 mph 1009.5mb 86f 86f
3:20pm  -   -   -  13 18 mph 1009.5mb 86f 86f
3:10pm  -   -   -  16 18 mph 1009.6mb 86f 86f
3:00pm  -   -   -  16 18 mph 1009.8mb 86f 86f
2:50pm 4.5ft 7s 5s 16 18 mph 1009.8mb 86f 86f
2:40pm  -   -   -  16 18 mph 1009.9mb 87f 85f
2:30pm  -   -   -  4 16 mph 1010mb 87f 83f
2:20pm  -   -   -   -  2 mph 1010mb 87f 81f
2:10pm  -   -   -  9 18 mph 1010.3mb 87f 82f
2:00pm  -   -   -  11 16 mph 1010.5mb 87f 83f
1:50pm 4.5ft 7s 5s 11 16 mph 1010.4mb 87f 84f
1:40pm  -   -   -  13 18 mph 1010.5mb 87f 85f
1:30pm  -   -   -  11 16 mph 1010.8mb 86f 83f
1:20pm  -   -   -  16 20 mph 1010.5mb 86f 82f
1:10pm  -   -   -  7 22 mph 1010.5mb 86f 82f
1:00pm  -   -   -  7 9 mph 1010.5mb 86f 82f
12:50pm 4.5ft 5s 5s 9 18 mph 1010.5mb 86f 80f
12:40pm  -   -   -  16 25 mph 1010.6mb 86f 79f
12:30pm  -   -   -  25 34 mph 1011mb 86f 83f
12:20pm  -   -   -  16 18 mph 1010.9mb 86f 86f
12:10pm  -   -   -  16 18 mph 1010.8mb 86f 86f
12:00pm  -   -   -  16 20 mph 1010.8mb 86f 86f
11:50am 4ft 5s 5s 16 20 mph 1010.8mb 86f 86f
11:40am 4ft  -  5s 16 22 mph 1010.9mb 86f 85f
11:30am  -   -   -  16 20 mph 1011mb 86f 85f
11:20am  -   -   -  16 20 mph 1011mb 86f 86f
11:10am  -   -   -  18 20 mph 1010.9mb 86f 86f
11:00am  -   -   -  20 25 mph 1010.6mb 86f 86f
10:50am 4.5ft 5s 5s 18 22 mph 1010.6mb 86f 86f
10:40am  -   -   -  18 22 mph 1010.6mb 86f 86f
10:30am  -   -   -  18 25 mph 1010.5mb 86f 86f
10:20am  -   -   -  18 22 mph 1010mb 86f 86f
10:10am  -   -   -  18 22 mph 1010mb 86f 86f
10:00am  -   -   -  18 22 mph 1010mb 86f 86f
9:50am 4.5ft 5s 5s 18 22 mph 1010mb 86f 86f
9:40am  -   -   -  18 22 mph 1010mb 86f 86f
9:30am  -   -   -  18 22 mph 1010mb 86f 86f
9:20am  -   -   -  18 22 mph 1010mb 86f 85f
9:10am  -   -   -  18 22 mph 1010mb 86f 85f
9:00am  -   -   -  18 22 mph 1010mb 86f 85f
8:50am 4.5ft 5s 5s 18 22 mph 1010mb 86f 85f
8:40am  -   -   -  18 22 mph 1010.3mb 86f 85f
8:30am  -   -   -  18 22 mph 1010.1mb 86f 85f
8:20am  -   -   -  18 22 mph 1010.1mb 86f 85f
8:10am  -   -   -  18 22 mph 1010.1mb 86f 85f
8:00am  -   -   -  20 22 mph 1009.6mb 86f 86f
7:50am 4.5ft 5s 5s 20 22 mph 1009.5mb 86f 86f
7:40am  -   -   -  20 25 mph 1009.4mb 86f 85f
7:30am  -   -   -  20 25 mph 1009.4mb 86f 85f
7:20am  -   -   -  22 25 mph 1009.4mb 86f 85f
7:10am  -   -   -  22 27 mph 1009.4mb 86f 85f
7:00am  -   -   -  22 27 mph 1009mb 86f 85f
6:50am 4.5ft 5s 5s 20 25 mph 1009mb 86f 85f
6:40am  -   -   -  22 27 mph 1008.9mb 86f 85f
6:30am  -   -   -  22 27 mph 1008.6mb 86f 85f
6:20am  -   -   -  22 27 mph 1008.5mb 86f 85f
6:10am  -   -   -  20 27 mph 1008.5mb 86f 85f
6:00am  -   -   -  20 25 mph 1008.5mb 86f 85f
5:50am 4.5ft 5s 4s 20 25 mph 1008.4mb 86f 85f
5:40am  -   -   -  20 25 mph 1008.3mb 86f 84f
5:30am  -   -   -  22 27 mph 1008.4mb 86f 84f
5:20am  -   -   -  22 27 mph 1008mb 86f 85f
5:10am  -   -   -  22 27 mph 1008mb 86f 85f
5:00am  -   -   -  22 27 mph 1008.1mb 86f 85f
4:50am 4ft 5s 4s 20 27 mph 1008.3mb 86f 85f
4:40am  -   -   -  22 27 mph 1008.3mb 86f 85f
4:30am  -   -   -  22 27 mph 1008.5mb 86f 85f
4:20am  -   -   -  20 25 mph 1008.5mb 86f 85f
4:10am  -   -   -  20 25 mph 1008.3mb 86f 85f
4:00am  -   -   -  20 25 mph 1008.5mb 86f 85f
3:50am 4ft 5s 4s 20 25 mph 1008.6mb 86f 85f
3:40am  -   -   -  22 25 mph 1008.5mb 86f 85f
3:30am  -   -   -  20 25 mph 1008.6mb 86f 85f
3:20am  -   -   -  20 25 mph 1008.8mb 86f 85f
3:10am  -   -   -  20 25 mph 1008.6mb 86f 85f
3:00am  -   -   -  20 25 mph 1008.8mb 86f 85f
2:50am 3.5ft 5s 4s 20 25 mph 1008.8mb 87f 85f
2:40am  -   -   -  20 25 mph 1008.8mb 87f 85f
2:30am  -   -   -  20 25 mph 1008.6mb 86f 85f
2:20am  -   -   -  20 25 mph 1008.9mb 86f 85f
2:10am  -   -   -  20 25 mph 1009mb 86f 85f
2:00am  -   -   -  20 27 mph 1009mb 87f 85f
1:50am 3.5ft 5s 4s 20 25 mph 1009.1mb 87f 85f
1:40am  -   -   -  20 25 mph 1009.3mb 87f 85f
1:30am  -   -   -  20 27 mph 1009.1mb 87f 85f
1:20am  -   -   -  22 27 mph 1009.4mb 87f 85f
1:10am  -   -   -  20 25 mph 1009.4mb 87f 85f
1:00am  -   -   -  22 27 mph 1009.4mb 86f 85f
12:50am 3ft 5s 4s 20 25 mph 1009.4mb 87f 85f
12:40am  -   -   -  20 25 mph 1009.5mb 86f 85f
12:30am  -   -   -  20 25 mph 1009.8mb 87f 85f
12:20am  -   -   -  20 25 mph 1010mb 87f 85f
12:10am  -   -   -  18 22 mph 1010.1mb 87f 85f
12:00am  -   -   -  18 22 mph 1010.3mb 87f 85f
Mon 08/29 11:50pm 2.5ft 4s 4s 18 22 mph 1010.1mb 87f 85f
11:40pm  -   -   -  18 22 mph 1010.1mb 87f 85f
11:30pm  -   -   -  20 25 mph 1010mb 87f 85f
11:20pm  -   -   -  20 25 mph 1010mb 87f 85f
11:10pm  -   -   -  20 27 mph 1010mb 87f 85f
11:00pm  -   -   -  20 25 mph 1010mb 87f 85f
10:50pm 2.5ft 4s 4s 18 25 mph 1010mb 87f 84f
10:40pm  -   -   -  18 20 mph 1010.3mb 87f 84f
10:30pm  -   -   -  18 20 mph 1010.3mb 87f 83f
10:20pm  -   -   -  18 20 mph 1010.4mb 87f 83f
10:10pm  -   -   -  16 20 mph 1010.5mb 87f 83f
10:00pm  -   -   -  18 20 mph 1010.5mb 87f 83f
9:50pm 2ft 3s 4s 16 20 mph 1010.3mb 87f 83f
9:40pm  -   -   -  16 20 mph 1010.1mb 87f 84f
9:30pm  -   -   -  18 20 mph 1010mb 87f 83f
9:20pm  -   -   -  18 22 mph 1010mb 87f 83f
9:10pm  -   -   -  18 22 mph 1010mb 87f 83f
9:00pm  -   -   -  20 22 mph 1010mb 87f 83f
8:50pm 1.6ft 6s 4s 18 25 mph 1009.9mb 87f 84f
8:40pm  -   -   -  13 16 mph 1009.5mb 87f 85f
8:30pm  -   -   -  13 18 mph 1009.3mb 87f 84f
8:20pm  -   -   -  13 18 mph 1009mb 87f 85f
8:10pm  -   -   -  13 16 mph 1009mb 87f 85f
8:00pm  -   -   -  13 18 mph 1009mb 87f 85f
7:50pm 1.6ft 6s 4s 13 16 mph 1008.9mb 87f 85f
7:40pm 1.6ft  -  4s 11 13 mph 1008.8mb 87f 84f
7:30pm  -   -   -  13 16 mph 1008.8mb 87f 85f
7:20pm  -   -   -  13 16 mph 1008.5mb 87f 85f
7:10pm  -   -   -  13 16 mph 1008.5mb 87f 85f
7:00pm  -   -   -  13 16 mph 1008.5mb 87f 85f
6:50pm 1.3ft 3s 4s 11 13 mph 1008.5mb 87f 85f
6:40pm  -   -   -  11 13 mph 1008.5mb 87f 85f
6:30pm  -   -   -  11
mph
1008.8mb 87f 85f
6:20pm  -   -   -  9 11 mph 1008.8mb 87f 85f
6:10pm  -   -   -  9 11 mph 1008.5mb 87f 85f
6:00pm  -   -   -  9 11 mph 1008.5mb 87f 85f
5:50pm 1.3ft 6s 4s 9 11 mph 1008.5mb 87f 85f
5:40pm  -   -   -  9 11 mph 1008.5mb 87f 84f
5:30pm  -   -   -  11 13 mph 1008.5mb 87f 84f
5:20pm  -   -   -  11 13 mph 1008.4mb 87f 84f
5:10pm  -   -   -  11 13 mph 1008.5mb 87f 85f
5:00pm  -   -   -  9 11 mph 1008.5mb 87f 85f
4:50pm 1.3ft 7s  -  9 11 mph 1008.5mb 87f 85f
4:40pm  -   -   -  7 9 mph 1008.5mb 87f 85f
4:30pm  -   -   -  7 9 mph 1008.5mb 87f 85f
4:20pm  -   -   -  4 9 mph 1008.5mb 87f 85f
4:10pm  -   -   -  4 7 mph 1008.5mb 87f 85f
4:00pm  -   -   -  4 7 mph 1008.6mb 87f 85f
3:50pm 1.3ft 3s 4s 4 7 mph 1008.8mb 87f 85f
3:40pm  -   -   -  4 7 mph 1008.9mb 87f 85f
3:30pm  -   -   -  4
mph
1009mb 87f 85f
3:20pm  -   -   -  4
mph
1009mb 87f 85f
3:10pm  -   -   -  4 7 mph 1009mb 87f 85f
3:00pm  -   -   -  4 7 mph 1009mb 87f 85f
2:50pm 1.3ft 3s 4s 4 7 mph 1009mb 87f 85f
2:40pm  -   -   -  4
mph
1009.4mb 87f 85f
2:30pm  -   -   -  4 7 mph 1009.5mb 87f 85f
2:20pm  -   -   -  4
mph
1009.5mb 87f 85f
2:10pm  -   -   -  4
mph
1009.6mb 87f 85f
2:00pm  -   -   -  4
mph
1009.5mb 87f 85f
1:50pm 1.3ft 7s 4s 4
mph
1009.8mb 87f 85f
1:40pm  -   -   -  4 7 mph 1009.9mb 87f 85f
1:30pm  -   -   -  4 7 mph 1010mb - 85f
1:20pm  -   -   -  4 7 mph 1010mb 87f 84f
1:10pm  -   -   -  7
mph
1010mb 87f 84f
1:00pm  -   -   -  7 9 mph 1010mb 87f 84f
12:50pm 1.3ft 7s 4s 9 11 mph 1010.1mb 87f 84f
12:40pm  -   -   -  4 9 mph 1010.3mb 87f 84f
12:30pm  -   -   -  9 11 mph 1010.3mb 87f 84f
12:20pm  -   -   -  7 11 mph 1010.5mb 87f 84f
12:10pm  -   -   -  9 11 mph 1010.5mb 87f 84f
12:00pm  -   -   -  4 9 mph 1010.5mb 87f 86f
11:50am 1.3ft 7s 4s 4 7 mph 1010.6mb 87f 85f
11:40am  -   -   -  4 7 mph 1010.6mb 87f 85f
11:30am  -   -   -  4 7 mph 1010.5mb 87f 85f
11:20am  -   -   -  4 7 mph 1010.5mb 87f 85f
11:10am  -   -   -  4 7 mph 1010.5mb 87f 85f
11:00am  -   -   -  4
mph
1010.6mb 87f 85f
10:50am 1.3ft 6s 4s 4 7 mph 1010.6mb 87f 85f
10:40am 1.3ft  -  4s 4 7 mph 1010.5mb 87f 85f
10:30am  -   -   -  7
mph
1010.6mb 87f 85f
10:20am  -   -   -  4 7 mph 1010.8mb 87f 85f
10:10am  -   -   -  4 7 mph 1010.6mb 87f 85f
10:00am  -   -   -  7 9 mph 1010.8mb 87f 85f
9:50am 1.3ft 7s 4s 7 9 mph 1010.8mb 87f 85f
9:40am  -   -   -  4 7 mph 1010.8mb 87f 85f
9:30am  -   -   -  4 7 mph 1010.6mb 87f 85f
9:20am  -   -   -  7
mph
1010.5mb 87f 85f
9:10am  -   -   -  4 7 mph 1010.4mb 87f 85f
9:00am  -   -   -  7 9 mph 1010.4mb 87f 85f
8:50am 1.3ft 7s 4s 7
mph
1010.5mb 87f 85f
8:40am  -   -   -  7 9 mph 1010.5mb 87f 85f
8:30am  -   -   -  7 9 mph 1010.5mb 87f 85f
8:20am  -   -   -  4 7 mph 1010.3mb 87f 85f
8:10am  -   -   -  4 7 mph 1010.1mb 87f 85f
8:00am  -   -   -  4 7 mph 1010mb 87f 85f
7:50am 1.3ft 7s 4s 4 7 mph 1010mb 87f 85f
7:40am  -   -   -  4 7 mph 1010mb 87f 84f
7:30am  -   -   -  7 9 mph 1009.9mb - 84f
7:20am  -   -   -  7 9 mph 1009.6mb 87f 84f
7:10am  -   -   -  7 9 mph 1009.6mb 87f 84f
7:00am  -   -   -  7 9 mph 1009.5mb 87f 85f
6:50am 1.3ft 6s 4s 7 11 mph 1009.5mb 87f 85f
6:40am  -   -   -  9 11 mph 1009.5mb 87f 84f
6:30am  -   -   -  9 11 mph 1009.4mb 87f 84f
6:20am  -   -   -  11 13 mph 1009.1mb 87f 84f
6:10am  -   -   -  9 13 mph 1009.1mb 87f 84f
6:00am  -   -   -  11 13 mph 1009mb 87f 85f
5:50am 1.3ft 6s 4s 7 9 mph 1009mb - -
5:40am  -   -   -  7
mph
1009mb 87f 85f
5:30am  -   -   -  7 9 mph 1008.9mb 87f 85f
5:20am  -   -   -  7 9 mph 1008.6mb 87f 85f
5:10am  -   -   -  7 9 mph 1008.5mb 87f 85f
5:00am  -   -   -  7 9 mph 1008.5mb 87f 85f
4:50am 1.3ft 7s 4s 9 11 mph 1008.5mb 87f 85f
4:40am  -   -   -  11 16 mph 1008.4mb 87f 84f
4:30am  -   -   -  11 13 mph 1008.3mb 87f 85f
4:20am  -   -   -  11 16 mph 1008.3mb 87f 84f
4:10am  -   -   -  9 13 mph 1008.4mb 87f 85f
4:00am  -   -   -  9 11 mph 1008.3mb 87f 84f
3:50am 1.3ft 7s 4s 9 13 mph 1008.1mb 87f 84f
3:40am  -   -   -  9 13 mph 1008.3mb 87f 85f
3:30am  -   -   -  9 11 mph 1008.1mb 87f 85f
3:20am  -   -   -  9 11 mph 1008.3mb 87f 85f
3:10am  -   -   -  7 9 mph 1008.4mb 87f 85f
3:00am  -   -   -  9 11 mph 1008.5mb 87f 85f
2:50am 1.3ft 7s 4s 7 11 mph 1008.5mb 87f 84f
2:40am  -   -   -  9 11 mph 1008.8mb 87f 84f
2:30am  -   -   -  9 13 mph 1008.8mb 87f 85f
2:20am  -   -   -  4 7 mph 1008.9mb 87f 85f
2:10am  -   -   -  4 9 mph 1009mb 87f 85f
2:00am  -   -   -  7 9 mph 1009mb 87f 85f
1:50am 1ft 6s 5s 7 9 mph 1009.1mb 87f 85f
1:40am  -   -   -  2 4 mph 1009.4mb 87f 85f
1:30am  -   -   -   -  2 mph 1009.5mb 87f 84f
1:20am  -   -   -   -  mph 1009.5mb 88f 84f
1:10am  -   -   -   -  2 mph 1009.6mb 88f 84f
1:00am  -   -   -  2
mph
1009.9mb 87f 84f
12:50am 1.3ft 7s 5s 2 4 mph 1009.9mb - -
12:40am  -   -   -  2 4 mph 1010.1mb 88f 84f
12:30am  -   -   -  4 7 mph 1010.1mb 87f 83f
12:20am  -   -   -  7
mph
1010.1mb 88f 84f
12:10am  -   -   -  7 9 mph 1010.1mb 88f 84f
12:00am  -   -   -  9 11 mph 1010.5mb 88f 83f
Sun 08/28 11:50pm 1.3ft 6s 5s 11 13 mph 1010.6mb 88f 83f
11:40pm  -   -   -  9 11 mph 1010.9mb 88f 83f
11:30pm  -   -   -  11 18 mph 1010.9mb 88f 83f
11:20pm  -   -   -  11 16 mph 1011mb 88f 83f
11:10pm  -   -   -  13 16 mph 1011mb 88f 84f
11:00pm  -   -   -  7 16 mph 1011mb 88f 85f
10:50pm 1.3ft 7s 5s  -  2 mph 1011mb 88f 86f
10:40pm  -   -   -   -  2 mph 1010.9mb 88f 86f
10:30pm  -   -   -  2 4 mph 1010.8mb 88f 86f
10:20pm  -   -   -   -  2 mph 1010.8mb - 86f
10:10pm  -   -   -  2 4 mph 1010.5mb 87f 86f
10:00pm  -   -   -  2 4 mph 1010.5mb 88f 86f
9:50pm 1ft 7s 5s 2 4 mph 1010.4mb 87f 86f
9:40pm  -   -   -  4
mph
1010.1mb 88f 86f
9:30pm  -   -   -  4 7 mph 1010mb 88f 86f
9:20pm  -   -   -  4
mph
1010mb 87f 86f
9:10pm  -   -   -  4
mph
1009.9mb 87f 86f
9:00pm  -   -   -  4 7 mph 1009.6mb 87f 86f
8:50pm 1ft 7s 4s 4
mph
1009.6mb 88f 86f
8:40pm  -   -   -  4
mph
1009.5mb 88f 86f
8:30pm  -   -   -  4 7 mph 1009.4mb 89f 86f
8:20pm  -   -   -  7 9 mph 1009.4mb 87f 86f
8:10pm  -   -   -  7 9 mph 1009.5mb 88f 86f
8:00pm  -   -   -  7 9 mph 1009.5mb 88f 86f
7:50pm 1ft 7s 4s 7 9 mph 1009.5mb 87f 86f
7:40pm 1ft  -  4s 4 7 mph 1009.4mb 87f 86f
7:30pm  -   -   -  4 7 mph 1009.1mb 87f 86f
7:20pm  -   -   -  4 9 mph 1009.1mb 87f 86f
7:10pm  -   -   -  7 9 mph 1009.1mb 89f 86f
7:00pm  -   -   -  7 9 mph 1009.4mb 90f 86f
6:50pm 1ft 5s 5s 7 9 mph 1009.4mb 90f 86f
6:40pm  -   -   -  7 9 mph 1009.4mb 88f 86f
6:30pm  -   -   -  7 11 mph 1009.4mb 89f 86f
6:20pm  -   -   -  7 9 mph 1009.4mb 89f 86f
6:10pm  -   -   -  9
mph
1009.3mb 88f 86f
6:00pm  -   -   -  7 9 mph 1009.4mb 89f 87f
5:50pm 1ft 5s 4s 2 4 mph 1009.4mb 88f 87f
5:40pm  -   -   -  2 4 mph 1009.4mb 89f 87f
5:30pm  -   -   -  2 4 mph 1009mb 88f 87f
5:20pm  -   -   -   -  4 mph 1009mb 87f 87f
5:10pm  -   -   -  2 4 mph 1009.3mb 87f 87f
5:00pm  -   -   -  2
mph
1009.3mb 87f 87f
4:50pm 1ft 4s 4s 2 4 mph 1009.1mb 87f 87f
4:40pm  -   -   -   -  2 mph 1009mb 87f 88f
4:30pm  -   -   -   -  2 mph 1008.9mb 87f 87f
4:20pm  -   -   -   -  2 mph 1008.9mb 87f 87f
4:10pm  -   -   -   -  2 mph 1009mb 87f 86f
4:00pm  -   -   -  2 4 mph 1008.9mb 87f 86f
3:50pm 1ft 5s 4s 4 7 mph 1009mb 87f 86f
3:40pm  -   -   -  4 7 mph 1009.3mb 87f 87f
3:30pm  -   -   -   -  2 mph 1009.4mb 87f 87f
3:20pm  -   -   -  2 4 mph 1009.5mb 87f 86f
3:10pm  -   -   -  2 4 mph 1009.5mb 87f 86f
3:00pm  -   -   -  2 4 mph 1009.5mb 87f 86f
2:50pm 1ft 6s 4s 4 7 mph 1009.5mb 87f 86f
2:40pm  -   -   -  4 7 mph 1009.5mb 87f 86f
2:30pm  -   -   -  2 4 mph 1009.5mb 87f 86f
2:20pm  -   -   -  4 7 mph 1009.8mb 87f 86f
2:10pm  -   -   -  2
mph
1010mb 87f 86f
2:00pm  -   -   -  2 4 mph 1010mb 87f 86f
1:50pm 1ft 6s 4s 2 4 mph 1010.1mb 87f 86f
1:40pm  -   -   -  2 7 mph 1010.3mb 87f 86f
1:30pm  -   -   -  7
mph
1010.3mb 87f 86f
1:20pm  -   -   -  4 9 mph 1010.4mb 87f 86f
1:10pm  -   -   -  2 4 mph 1010.5mb 87f 86f
1:00pm  -   -   -  2 4 mph 1010.5mb 87f 86f
12:50pm 1.3ft 5s 4s 4 7 mph 1010.6mb 87f 86f
12:40pm  -   -   -  4 7 mph 1011mb 87f 86f
12:30pm  -   -   -  4 7 mph 1011mb 87f 86f
12:20pm  -   -   -  4 7 mph 1011.1mb 87f 86f
12:10pm  -   -   -  4 7 mph 1011.3mb 87f 85f
12:00pm  -   -   -  4 7 mph 1011.5mb 87f 85f
11:50am 1.3ft 6s 4s 4 7 mph 1011.5mb 87f 85f
11:40am  -   -   -  4 7 mph 1011.8mb 87f 85f
11:30am  -   -   -  4
mph
1012mb 87f 85f
11:20am  -   -   -  4 7 mph 1011.9mb 87f 85f
11:10am  -   -   -  4 7 mph 1012mb 87f 85f
11:00am  -   -   -  2 4 mph 1012.3mb 87f 86f
10:50am 1.3ft 5s 4s 2 4 mph 1012.3mb 87f 85f
10:40am  -   -   -  4
mph
1012.3mb 87f 86f
10:30am  -   -   -  4 7 mph 1012mb 87f 86f
10:20am  -   -   -  2 4 mph 1012mb 87f 86f
10:10am  -   -   -  2 4 mph 1012mb 87f 86f
10:00am  -   -   -  2 4 mph 1012mb 87f 86f
9:50am 1.3ft 6s 4s 2 4 mph 1012mb 87f 86f
9:40am  -   -   -  2 4 mph 1012mb 87f 86f
9:30am  -   -   -  2 4 mph 1011.9mb 87f 86f
9:20am  -   -   -  2 4 mph 1011.8mb 87f 86f
9:10am  -   -   -  2
mph
1011.8mb 87f 86f
9:00am  -   -   -  2 4 mph 1011.8mb 87f 86f
8:50am 1.3ft 6s 4s 2 4 mph 1011.6mb 87f 86f
8:40am 1.3ft  -  4s 2
mph
1011.8mb 87f 86f
8:30am  -   -   -  2 4 mph 1011.5mb 87f 86f
8:20am  -   -   -  2 4 mph 1011.5mb 87f 86f
8:10am  -   -   -  4
mph
1011.4mb 87f 86f
8:00am  -   -   -  4
mph
1011.5mb 87f 85f
7:50am 1.3ft 6s 4s 4
mph
1011.5mb 87f 85f
7:40am  -   -   -  4 7 mph 1011.4mb 87f 85f
7:30am  -   -   -  2 4 mph 1011.4mb 87f 85f
7:20am  -   -   -  2 4 mph 1011.4mb 87f 85f
7:10am  -   -   -  4
mph
1011.3mb 87f 85f
7:00am  -   -   -  4 7 mph 1011mb 87f 85f
6:50am 1.3ft 6s 4s 4 7 mph 1010.9mb 87f 85f
6:40am  -   -   -  4 7 mph 1010.8mb 87f 85f
6:30am  -   -   -  4 7 mph 1010.8mb 87f 85f
6:20am  -   -   -  7
mph
1010.8mb 87f 85f
6:10am  -   -   -  7
mph
1010.6mb 87f 85f
6:00am  -   -   -  7
mph
1010.5mb 87f 85f
5:50am 1.3ft 6s 4s 4 7 mph 1010.5mb 87f 85f
5:40am  -   -   -  4 7 mph 1010.5mb 87f 85f
5:30am  -   -   -  4 7 mph 1010.3mb 87f 85f
5:20am  -   -   -  7 9 mph 1010.1mb 87f 85f
5:10am  -   -   -  7
mph
1010mb 87f 85f
5:00am  -   -   -  7 9 mph 1010mb 87f 85f
4:50am 1.3ft 6s 4s 7 9 mph 1009.9mb 87f 85f
4:40am  -   -   -  7 9 mph 1009.9mb 87f 85f
4:30am  -   -   -  7 9 mph 1009.9mb 87f 85f
4:20am  -   -   -  7 9 mph 1009.8mb 87f 85f
4:10am  -   -   -  7
mph
1009.9mb 87f 85f
4:00am  -   -   -  7 9 mph 1009.9mb 87f 85f
3:50am 1.3ft 6s 4s 7 9 mph 1009.8mb 87f 85f
3:40am  -   -   -  7 9 mph 1009.8mb 87f 85f
3:30am  -   -   -  7 9 mph 1009.9mb 87f 85f
3:20am  -   -   -  7
mph
1010mb 87f 85f
3:10am  -   -   -  4 7 mph 1010mb 87f 85f
3:00am  -   -   -  4 7 mph 1010mb 87f 85f
2:50am 1.3ft 6s 4s 7
mph
1010mb 87f 85f
2:40am  -   -   -  4 7 mph 1010mb 87f 85f
2:30am  -   -   -  7
mph
1010.3mb 87f 85f
2:20am  -   -   -  7
mph
1010mb 87f 85f
2:10am  -   -   -  7 9 mph 1010.1mb 87f 85f
2:00am  -   -   -  7 9 mph 1010.1mb 87f 85f
1:50am 1.3ft 6s 4s 9
mph
1010.3mb 87f 85f
1:40am  -   -   -  9 11 mph 1010.3mb 87f 85f
1:30am  -   -   -  9 11 mph 1010.5mb 87f 85f
1:20am  -   -   -  9 11 mph 1010.5mb 87f 85f
1:10am  -   -   -  9 11 mph 1010.5mb 87f 85f
1:00am  -   -   -  9 11 mph 1010.5mb 87f 85f
12:50am 1.6ft 6s 4s 9 11 mph 1010.5mb 87f 85f
12:40am 1.6ft  -  4s 9 11 mph 1010.5mb 87f 85f
12:30am  -   -   -  9 11 mph 1010.5mb 87f 85f
12:20am  -   -   -  9 11 mph 1010.5mb 87f 85f
12:10am  -   -   -  9 11 mph 1010.6mb 87f 85f
12:00am  -   -   -  11 13 mph 1010.8mb 87f 85f
Sat 08/27 11:50pm 1.6ft 6s 3s 11 13 mph 1010.6mb 87f 85f
11:40pm  -   -   -  11 16 mph 1010.8mb 87f 85f
11:30pm  -   -   -  11 13 mph 1010.9mb 87f 85f
11:20pm  -   -   -  11 13 mph 1010.8mb 87f 85f
11:10pm  -   -   -  11 13 mph 1010.9mb 87f 85f
11:00pm  -   -   -  11 16 mph 1011mb 87f 85f
10:50pm 1.6ft 6s 4s 11 13 mph 1011.3mb 87f 85f
10:40pm  -   -   -  11 13 mph 1011.3mb 87f 85f
10:30pm  -   -   -  11 13 mph 1011.3mb 87f 85f
10:20pm  -   -   -  11 16 mph 1011.1mb 87f 85f
10:10pm  -   -   -  13 16 mph 1011.4mb 87f 85f
10:00pm  -   -   -  11 16 mph 1011.3mb 87f 86f
9:50pm 1.3ft 6s 4s 11 13 mph 1011mb 87f 86f
9:40pm  -   -   -  13 16 mph 1011mb 87f 86f
9:30pm  -   -   -  11 13 mph 1011mb 87f 86f
9:20pm  -   -   -  9 13 mph 1010.8mb 87f 86f
9:10pm  -   -   -  9 11 mph 1011mb 87f 86f
9:00pm  -   -   -  9 11 mph 1011mb 87f 86f
8:50pm 1.3ft 6s 4s 11 13 mph 1011mb 87f 86f
8:40pm  -   -   -  11
mph
1011mb 87f 86f
8:30pm  -   -   -  9 11 mph 1011mb 87f 86f
8:20pm  -   -   -  11
mph
1011mb 87f 86f
8:10pm  -   -   -  11 13 mph 1010.6mb 87f 86f
8:00pm  -   -   -  11 13 mph 1010.5mb 87f 86f
7:50pm 1.3ft 6s 4s 11 13 mph 1010.4mb 87f 86f
7:40pm  -   -   -  11 13 mph 1010.3mb 87f 86f
7:30pm  -   -   -  11 16 mph 1010.3mb 87f 86f
7:20pm  -   -   -  11 13 mph 1010.3mb 87f 86f
7:10pm  -   -   -  11 13 mph 1010mb 87f 86f
7:00pm  -   -   -  11 13 mph 1009.9mb 87f 86f
6:50pm 1.3ft 6s 4s 11 13 mph 1009.8mb 87f 86f
6:40pm  -   -   -  11 13 mph 1009.6mb 87f 86f
6:30pm  -   -   -  11 13 mph 1009.5mb 87f 86f
6:20pm  -   -   -  11 13 mph 1009.4mb 87f 86f
6:10pm  -   -   -  11 13 mph 1009.5mb 87f 86f
6:00pm  -   -   -  11 13 mph 1009.4mb 87f 86f
5:50pm 1.3ft 6s 4s 11 13 mph 1009.3mb 87f 86f
5:40pm  -   -   -  11 13 mph 1009.1mb 87f 86f
5:30pm  -   -   -  11 13 mph 1009.3mb 87f 86f
5:20pm  -   -   -  11 13 mph 1009.1mb 87f 86f
5:10pm  -   -   -  13 16 mph 1009.3mb 87f 86f
5:00pm  -   -   -  13 16 mph 1009.3mb 87f 86f
4:50pm 1.3ft 6s 4s 11 13 mph 1009.1mb 87f 86f
4:40pm  -   -   -  11 13 mph 1009mb 87f 86f